Temp
-10 -10 -10 -10 -10 -10 -10 -11 -11 -12 -12 -11 -11 -11 -11 -10 -10 -10 -10 -10 -10 -10 -9 -9 -9 -9 -9 -9 -9 -9 -9 -9 -9 -9 -9 -9 -9 -9 -9 -9 -9 -9 -10
-10 -10 -10 -10 -10 -10 -10 -12 -13 -13 -13 -12 -12 -12 -11 -11 -11 -10 -10 -10 -10 -10 -10 -10 -10 -9 -9 -9 -9 -9 -9 -9 -9 -9 -9 -9 -9 -9 -9 -9 -9 -10 -10
-10 -10 -10 -10 -10 -11 -12 -13 -13 -13 -13 -13 -13 -12 -12 -11 -11 -11 -11 -10 -10 -10 -10 -10 -10 -10 -10 -10 -9 -9 -9 -9 -9 -9 -9 -9 -9 -9 -9 -9 -9 -10 -10
-10 -10 -10 -10 -10 -10 -12 -13 -14 -14 -14 -14 -13 -13 -13 -12 -12 -11 -11 -11 -11 -11 -11 -11 -11 -10 -10 -10 -10 -10 -10 -9 -9 -9 -9 -9 -9 -9 -9 -9 -9 -9 -10
-10 -10 -10 -10 -10 -10 -12 -12 -14 -14 -13 -13 -13 -13 -13 -13 -12 -12 -12 -11 -11 -11 -11 -11 -11 -11 -11 -11 -10 -10 -10 -10 -10 -10 -9 -10 -9 -9 -9 -9 -9 -10 -10
-9 -9 -10 -11 -10 -10 -11 -13 -14 -14 -14 -13 -13 -13 -13 -12 -13 -12 -12 -12 -12 -12 -12 -12 -12 -11 -11 -11 -11 -11 -10 -10 -10 -10 -10 -10 -10 -10 -10 -10 -10 -10 -10
-9 -9 -10 -11 -11 -11 -11 -12 -12 -13 -14 -13 -13 -13 -13 -13 -13 -13 -12 -12 -13 -12 -12 -12 -12 -12 -12 -11 -11 -11 -11 -11 -10 -10 -10 -10 -10 -10 -10 -10 -10 -10 -10
-9 -9 -9 -10 -11 -11 -11 -11 -11 -12 -12 -13 -13 -13 -13 -13 -13 -13 -13 -12 -12 -13 -12 -12 -12 -12 -12 -12 -12 -11 -11 -11 -11 -11 -11 -11 -10 -10 -10 -10 -10 -10 -10
-9 -9 -9 -9 -10 -11 -11 -11 -11 -11 -11 -11 -12 -12 -13 -12 -12 -12 -13 -12 -12 -12 -13 -13 -12 -12 -12 -12 -12 -12 -12 -11 -11 -11 -11 -11 -11 -11 -11 -10 -11 -11 -11
-9 -9 -9 -10 -10 -11 -11 -11 -11 -11 -11 -11 -11 -12 -12 -12 -12 -12 -12 -12 -12 -12 -12 -13 -13 -12 -12 -12 -12 -12 -12 -12 -11 -11 -11 -11 -11 -11 -11 -11 -11 -11 -11
-9 -9 -9 -9 -10 -10 -11 -11 -11 -11 -11 -11 -11 -11 -12 -12 -12 -12 -12 -12 -12 -12 -12 -13 -12 -13 -13 -13 -13 -12 -12 -12 -12 -12 -12 -11 -11 -11 -11 -11 -11 -11 -11
-8 -9 -9 -9 -9 -10 -10 -10 -11 -12 -12 -11 -11 -11 -11 -12 -13 -12 -12 -13 -12 -13 -13 -12 -12 -13 -13 -13 -13 -13 -13 -13 -12 -12 -12 -12 -12 -12 -12 -12 -12 -11 -11
-8 -9 -9 -9 -10 -10 -10 -10 -10 -11 -12 -12 -11 -11 -12 -12 -12 -13 -13 -13 -13 -13 -13 -13 -13 -13 -13 -13 -14 -14 -13 -13 -13 -13 -13 -13 -13 -13 -13 -13 -12 -12 -12
-8 -9 -9 -9 -9 -10 -10 -10 -10 -11 -11 -12 -12 -12 -11 -12 -12 -12 -12 -12 -13 -13 -13 -13 -13 -13 -13 -14 -14 -14 -14 -14 -13 -13 -13 -13 -13 -13 -13 -13 -13 -13 -12
-8 -9 -9 -9 -9 -10 -9 -11 -11 -11 -12 -12 -12 -12 -12 -12 -13 -13 -13 -13 -13 -13 -13 -13 -14 -14 -14 -14 -15 -14 -14 -14 -14 -14 -14 -14 -14 -13 -13 -13 -14 -14 -13
-9 -9 -9 -9 -10 -10 -10 -10 -11 -12 -12 -12 -12 -12 -13 -13 -13 -13 -13 -13 -13 -13 -14 -14 -14 -14 -14 -14 -14 -14 -14 -15 -15 -15 -14 -14 -14 -13 -13 -13 -14 -14 -14
-9 -9 -9 -9 -10 -10 -10 -10 -11 -11 -12 -12 -13 -13 -13 -13 -13 -13 -14 -14 -14 -14 -14 -14 -14 -14 -14 -15 -15 -14 -15 -15 -15 -15 -14 -14 -14 -14 -13 -13 -14 -14 -14
-9 -9 -10 -10 -10 -10 -10 -10 -11 -12 -12 -13 -13 -14 -14 -14 -14 -14 -14 -14 -14 -14 -14 -14 -14 -14 -14 -14 -15 -15 -16 -15 -15 -14 -14 -15 -14 -14 -15 -14 -15 -14 -14
-10 -10 -10 -10 -10 -10 -11 -11 -12 -13 -13 -14 -14 -14 -14 -15 -15 -15 -15 -15 -15 -15 -15 -14 -14 -15 -15 -14 -15 -15 -15 -15 -15 -15 -15 -15 -15 -15 -15 -16 -15 -14 -14
-10 -10 -10 -10 -11 -11 -11 -12 -14 -14 -14 -14 -15 -15 -15 -15 -15 -15 -15 -16 -15 -15 -15 -15 -15 -15 -15 -15 -15 -15 -15 -15 -16 -16 -16 -15 -15 -15 -15 -15 -16 -16 -17
-11 -11 -11 -11 -11 -11 -11 -12 -13 -14 -14 -15 -15 -15 -16 -16 -16 -16 -16 -16 -16 -16 -16 -16 -16 -16 -15 -15 -16 -15 -16 -16 -16 -16 -17 -17 -16 -16 -16 -16 -16 -16 -16
-11 -11 -11 -11 -11 -12 -12 -12 -14 -14 -15 -15 -15 -16 -16 -17 -17 -17 -17 -17 -17 -17 -17 -17 -16 -16 -16 -16 -16 -16 -16 -16 -16 -16 -16 -17 -17 -16 -16 -16 -16 -16 -16
-11 -11 -12 -12 -12 -12 -13 -13 -14 -14 -16 -16 -16 -16 -17 -17 -18 -18 -18 -18 -18 -18 -18 -17 -17 -17 -17 -17 -17 -17 -17 -17 -17 -17 -17 -17 -17 -17 -16 -16 -17 -17 -16
-12 -12 -13 -13 -13 -13 -13 -14 -15 -16 -16 -16 -17 -17 -18 -18 -18 -19 -19 -19 -18 -18 -19 -19 -19 -18 -18 -18 -17 -17 -17 -17 -17 -17 -17 -17 -17 -17 -17 -17 -17 -17 -17
-13 -13 -13 -14 -14 -14 -14 -15 -16 -17 -17 -17 -17 -18 -18 -18 -19 -19 -19 -20 -19 -19 -20 -20 -19 -18 -18 -18 -18 -18 -18 -18 -18 -18 -17 -17 -17 -17 -17 -17 -17 -17 -17
-14 -14 -14 -14 -15 -15 -15 -16 -17 -18 -18 -18 -18 -18 -19 -19 -19 -20 -20 -20 -20 -20 -20 -20 -19 -19 -19 -19 -19 -18 -18 -18 -18 -18 -17 -17 -18 -18 -17 -17 -17 -17 -17
Height
5843 5840 5839 5837 5835 5833 5831 5829 5829 5830 5832 5834 5834 5836 5837 5839 5840 5841 5842 5843 5844 5844 5844 5845 5845 5846 5846 5846 5847 5847 5848 5848 5849 5848 5849 5850 5851 5851 5852 5852 5852 5853 5854
5841 5840 5838 5836 5833 5831 5827 5824 5824 5825 5827 5829 5830 5833 5834 5836 5837 5838 5839 5840 5841 5842 5842 5843 5844 5844 5845 5845 5845 5846 5846 5847 5848 5848 5848 5849 5850 5850 5851 5851 5851 5852 5852
5839 5839 5836 5834 5831 5824 5820 5819 5819 5821 5822 5823 5826 5828 5828 5832 5833 5834 5836 5837 5838 5839 5839 5840 5841 5842 5843 5843 5844 5844 5844 5845 5846 5847 5847 5847 5848 5849 5850 5850 5850 5851 5851
5838 5837 5835 5832 5827 5820 5813 5814 5816 5816 5818 5819 5821 5824 5826 5828 5830 5832 5833 5833 5834 5835 5837 5837 5839 5839 5840 5841 5841 5842 5843 5843 5844 5846 5846 5846 5847 5847 5848 5848 5849 5849 5850
5836 5834 5832 5830 5825 5818 5810 5808 5810 5815 5816 5818 5819 5820 5822 5824 5827 5828 5829 5830 5831 5832 5833 5835 5836 5837 5838 5838 5839 5840 5841 5841 5842 5843 5845 5845 5844 5845 5845 5846 5847 5847 5848
5836 5833 5829 5827 5823 5817 5810 5807 5808 5810 5814 5814 5816 5817 5818 5818 5820 5823 5824 5826 5828 5829 5830 5831 5833 5835 5835 5836 5836 5838 5839 5840 5840 5841 5843 5841 5843 5843 5843 5844 5845 5845 5846
5835 5830 5826 5823 5821 5817 5814 5809 5808 5811 5812 5811 5812 5814 5814 5814 5814 5817 5820 5820 5824 5825 5826 5828 5829 5831 5832 5832 5833 5834 5835 5836 5837 5839 5839 5840 5840 5841 5841 5842 5841 5842 5843
5834 5830 5825 5821 5818 5816 5813 5812 5811 5810 5810 5806 5806 5809 5810 5809 5809 5811 5814 5816 5817 5820 5822 5824 5825 5827 5828 5829 5829 5830 5831 5832 5833 5835 5835 5836 5837 5837 5838 5839 5839 5840 5840
5832 5829 5825 5821 5816 5814 5813 5811 5810 5808 5806 5805 5805 5803 5804 5803 5803 5805 5808 5811 5811 5814 5816 5818 5821 5822 5823 5824 5825 5826 5826 5827 5828 5829 5831 5832 5833 5833 5834 5835 5836 5836 5837
5831 5829 5825 5821 5817 5813 5811 5811 5810 5809 5806 5805 5801 5798 5798 5799 5799 5799 5803 5807 5808 5810 5811 5812 5814 5816 5817 5818 5819 5820 5821 5822 5823 5824 5826 5826 5827 5828 5830 5830 5831 5832 5832
5830 5827 5824 5822 5818 5814 5810 5809 5808 5807 5804 5801 5798 5796 5794 5795 5795 5795 5797 5799 5803 5804 5805 5806 5806 5808 5810 5812 5813 5814 5815 5815 5816 5818 5818 5819 5821 5822 5823 5824 5826 5827 5828
5826 5824 5822 5819 5817 5815 5811 5808 5805 5804 5803 5800 5797 5796 5796 5796 5794 5792 5794 5797 5798 5799 5799 5798 5797 5799 5802 5805 5806 5807 5808 5809 5810 5812 5811 5813 5814 5815 5817 5818 5820 5822 5822
5823 5821 5817 5815 5814 5812 5808 5807 5804 5801 5800 5800 5799 5796 5796 5794 5793 5793 5792 5793 5792 5791 5792 5795 5794 5793 5795 5799 5800 5801 5800 5802 5803 5804 5804 5806 5807 5808 5810 5811 5813 5815 5817
5820 5817 5814 5811 5809 5807 5804 5801 5799 5797 5795 5793 5793 5794 5792 5791 5789 5788 5788 5787 5786 5787 5787 5787 5787 5787 5788 5792 5794 5795 5794 5795 5795 5797 5798 5799 5800 5801 5803 5805 5806 5808 5810
5816 5814 5810 5807 5803 5801 5799 5796 5795 5794 5790 5787 5786 5786 5787 5786 5785 5784 5784 5782 5781 5782 5781 5781 5781 5782 5785 5785 5787 5787 5787 5787 5787 5788 5791 5791 5793 5795 5796 5797 5800 5801 5803
5811 5808 5806 5802 5800 5797 5795 5792 5790 5788 5787 5785 5782 5779 5778 5779 5779 5778 5779 5778 5777 5777 5776 5776 5777 5778 5778 5778 5779 5779 5780 5781 5782 5782 5784 5784 5785 5786 5788 5788 5792 5793 5795
5808 5804 5801 5796 5794 5791 5787 5783 5780 5778 5777 5776 5775 5773 5770 5769 5769 5770 5770 5770 5771 5770 5770 5769 5771 5772 5771 5771 5773 5772 5772 5774 5777 5777 5778 5779 5779 5779 5780 5779 5783 5785 5787
5803 5800 5796 5792 5788 5784 5781 5778 5775 5773 5769 5767 5765 5764 5763 5762 5761 5760 5761 5761 5762 5762 5762 5763 5763 5763 5763 5764 5765 5767 5767 5768 5770 5772 5772 5772 5773 5772 5773 5774 5776 5777 5779
5798 5795 5791 5787 5783 5778 5774 5771 5767 5763 5761 5759 5758 5757 5756 5754 5753 5752 5751 5752 5753 5753 5753 5753 5754 5755 5756 5756 5757 5759 5761 5762 5763 5764 5765 5766 5766 5766 5768 5769 5768 5769 5770
5793 5789 5784 5780 5775 5772 5768 5763 5759 5756 5754 5751 5747 5745 5745 5745 5745 5744 5743 5742 5742 5743 5744 5744 5744 5746 5747 5748 5749 5752 5754 5755 5756 5757 5758 5759 5760 5760 5762 5762 5763 5764 5763
5787 5783 5777 5773 5769 5765 5761 5756 5753 5750 5746 5743 5741 5738 5734 5734 5734 5734 5733 5733 5732 5733 5734 5735 5736 5736 5738 5740 5742 5743 5745 5746 5748 5749 5751 5753 5754 5755 5755 5757 5758 5759 5760
5780 5776 5772 5767 5762 5757 5752 5748 5744 5740 5737 5733 5731 5729 5728 5724 5724 5724 5724 5724 5723 5724 5725 5726 5727 5728 5729 5731 5734 5735 5737 5739 5741 5742 5743 5746 5747 5748 5749 5751 5751 5752 5753
5771 5767 5761 5756 5752 5748 5743 5738 5734 5731 5728 5725 5722 5719 5718 5716 5715 5715 5715 5715 5715 5715 5716 5717 5718 5719 5720 5722 5725 5728 5730 5731 5733 5734 5736 5737 5739 5741 5741 5744 5744 5745 5746
5761 5756 5752 5746 5742 5737 5732 5727 5723 5720 5717 5715 5712 5709 5708 5706 5706 5706 5706 5706 5707 5706 5707 5708 5710 5711 5711 5713 5715 5719 5721 5723 5725 5726 5728 5730 5731 5732 5734 5735 5735 5737 5738
5751 5746 5741 5736 5731 5726 5722 5717 5713 5710 5707 5704 5702 5700 5698 5697 5696 5696 5696 5697 5698 5698 5698 5700 5702 5703 5704 5705 5707 5710 5712 5714 5716 5718 5719 5722 5722 5723 5725 5725 5726 5727 5729
5739 5734 5729 5724 5719 5714 5710 5707 5703 5700 5697 5694 5691 5690 5688 5688 5687 5687 5688 5688 5689 5689 5691 5691 5693 5695 5696 5698 5699 5701 5703 5705 5707 5708 5710 5713 5714 5714 5715 5716 5717 5718 5719
Wind_Speed
13 15 17 19 21 22 25 27 28 24 26 26 26 22 21 20 21 20 18 16 16 14 13 13 12 10 10 10 10 10 12 10 8 7 7 6 5 6 5 5 6 6 5
16 17 21 24 26 34 34 31 30 26 24 26 27 24 25 25 23 22 20 20 19 16 16 15 14 13 11 10 11 11 10 13 11 10 8 7 7 6 5 6 6 6 7
17 19 21 26 30 35 32 35 30 27 25 24 25 25 27 27 25 25 23 23 21 20 18 17 16 16 15 12 11 11 12 11 13 12 11 10 9 8 8 7 5 6 7
24 23 25 27 32 39 23 28 33 30 27 24 24 25 26 26 27 26 26 25 24 22 21 19 18 17 16 15 13 12 12 13 12 13 14 12 11 10 10 9 8 9 9
28 30 30 30 32 37 23 23 27 30 29 27 24 26 27 29 28 29 29 29 27 25 22 21 19 18 17 16 16 15 14 13 13 14 14 13 14 13 12 11 10 11 10
30 33 34 33 36 37 31 19 19 25 26 26 29 27 31 31 30 31 35 31 28 26 24 22 21 21 20 18 18 17 17 17 16 15 14 16 13 13 13 13 11 11 11
30 33 35 34 34 36 36 20 16 13 17 21 28 32 32 34 34 34 33 34 30 28 26 26 25 23 22 21 21 21 22 21 21 19 18 18 17 16 15 15 15 14 14
31 35 37 38 35 34 34 30 18 16 18 21 25 28 31 34 37 36 37 31 39 32 29 28 28 25 24 23 22 23 24 25 25 24 23 22 21 20 19 18 16 16 16
31 35 37 40 40 35 32 30 27 21 20 18 25 29 33 34 30 36 37 39 40 38 36 32 30 29 28 27 27 27 27 27 28 29 28 27 26 24 23 23 21 19 18
33 34 37 36 38 37 36 32 28 29 28 27 26 27 30 32 32 28 34 40 41 36 39 38 37 34 32 31 31 30 30 30 31 31 31 32 32 30 28 26 25 24 23
30 32 34 36 35 35 37 34 31 26 30 31 28 25 18 25 31 30 29 30 35 43 42 41 40 39 38 34 32 33 33 33 32 31 33 33 35 35 34 32 30 28 26
34 35 36 37 38 38 39 39 34 31 28 28 33 29 20 24 23 29 29 24 29 31 39 49 41 39 38 38 38 36 35 34 34 32 33 34 35 36 37 36 35 33 30
35 37 38 39 37 38 41 42 41 36 30 26 23 31 27 25 26 20 27 34 34 35 36 40 42 35 35 35 34 35 35 35 34 30 32 32 33 35 36 37 37 37 35
37 37 36 38 40 41 41 41 40 34 32 26 26 24 31 29 30 29 32 29 26 29 26 20 28 37 30 31 35 35 35 36 37 35 34 33 32 32 35 36 38 38 39
32 37 39 38 39 39 40 36 37 32 30 25 27 28 28 32 30 30 30 29 29 22 29 33 26 31 32 34 31 34 33 34 33 33 32 34 34 35 35 36 38 39 40
28 30 36 38 38 40 39 41 40 37 28 27 29 30 31 30 33 31 33 31 32 32 33 28 27 25 26 27 26 31 34 32 31 29 28 29 30 33 34 37 37 38 40
27 30 32 34 36 33 32 33 34 33 33 30 30 34 36 35 32 32 33 35 35 33 35 31 34 33 28 27 28 26 24 27 31 26 27 26 27 26 30 34 39 38 40
28 31 32 34 36 36 37 36 38 37 35 32 34 37 38 39 36 33 33 35 37 36 35 34 35 35 33 31 27 27 27 26 28 30 27 26 30 23 22 30 37 41 42
27 28 31 36 38 39 38 37 38 37 35 35 36 39 40 40 39 36 34 36 38 39 38 36 35 36 35 34 33 31 32 27 26 25 24 25 28 28 24 29 25 43 42
30 34 33 36 41 46 46 44 39 39 39 38 39 39 40 39 39 40 39 37 41 38 40 39 36 36 36 36 34 36 35 29 32 25 22 24 25 27 26 23 24 26 23
40 39 35 37 38 44 50 50 48 45 41 42 44 43 36 37 38 39 38 37 36 40 42 39 37 35 36 35 35 34 34 31 28 30 28 27 26 25 24 23 24 23 26
41 44 44 41 43 47 51 54 52 46 43 43 44 44 41 35 34 35 35 35 34 35 39 38 36 36 35 34 34 33 33 30 29 28 27 28 29 27 26 26 26 26 26
41 45 47 47 49 51 54 57 54 52 44 41 45 41 36 36 32 32 31 33 34 36 36 38 35 36 33 34 33 32 33 31 30 29 29 29 30 30 29 29 28 28 30
47 49 51 52 50 51 54 57 56 51 43 43 44 41 35 34 32 30 34 32 33 29 27 30 33 33 31 32 33 34 34 33 32 32 32 31 31 31 31 31 31 32 31
52 52 54 53 52 52 54 56 55 49 42 43 44 39 36 33 32 31 32 32 32 34 33 32 34 33 33 33 34 34 34 34 34 33 33 33 33 34 33 33 33 35 35
54 56 55 53 54 54 55 55 54 49 43 42 40 37 36 35 32 32 33 33 34 33 36 35 36 37 35 35 35 36 36 36 37 36 35 35 35 36 37 37 37 37 36
Wind_Direction
353 335 326 315 298 280 267 258 253 248 246 242 238 237 241 235 235 239 240 246 244 237 230 235 239 239 244 248 249 247 239 236 236 233 234 235 243 245 247 244 243 235 233
355 342 335 329 319 308 282 262 255 248 244 243 241 239 238 240 240 238 238 247 250 244 240 237 242 244 245 248 248 247 247 239 239 237 236 236 238 244 242 245 246 241 238
350 353 341 337 333 329 293 267 258 253 248 241 241 238 237 240 238 236 236 240 244 246 243 241 240 244 246 248 251 248 247 244 243 242 242 239 237 239 242 238 242 256 252
356 358 357 347 347 344 310 275 261 250 250 252 247 244 240 239 241 239 238 238 240 244 246 239 240 238 242 245 248 253 252 248 244 244 240 240 241 243 243 244 237 250 253
353 353 355 357 355 357 333 306 265 261 251 253 256 254 251 246 244 245 240 239 237 239 243 244 241 240 237 242 248 250 253 257 252 244 241 238 237 236 235 239 243 248 242
346 348 349 356 360 4 3 341 297 251 254 252 251 253 251 251 246 249 239 236 235 237 239 242 244 243 243 243 247 251 255 256 258 255 244 239 237 239 239 234 235 243 237
347 348 348 352 358 6 10 357 342 286 253 277 256 253 254 255 251 245 252 230 232 238 242 246 247 245 242 244 246 248 250 253 256 256 256 251 246 244 243 243 236 235 236
350 348 348 349 353 1 5 11 355 336 313 280 263 252 255 254 256 258 251 254 234 229 239 244 246 248 249 250 251 252 252 253 251 252 255 254 252 248 246 247 246 238 238
344 344 344 344 345 349 356 358 358 350 332 314 282 258 255 259 264 256 259 255 243 235 232 238 244 246 251 255 257 259 259 258 258 253 251 251 253 252 250 248 247 246 243
342 345 345 345 345 344 346 350 350 347 337 335 332 268 255 259 262 257 256 251 257 252 247 240 236 241 248 257 263 262 264 265 264 261 257 254 249 249 251 249 248 247 246
343 342 342 341 344 344 343 342 343 342 342 335 336 336 273 266 270 264 252 256 255 259 251 245 239 238 243 247 257 264 267 268 266 266 263 258 254 251 249 248 247 247 247
339 339 340 340 340 342 343 342 339 339 340 335 330 331 322 277 284 259 257 257 267 274 268 246 238 240 244 248 250 258 266 269 268 267 264 262 258 252 249 249 248 247 246
332 333 335 336 340 343 341 339 336 336 334 331 326 321 314 308 286 302 273 271 273 278 262 253 245 238 245 253 256 258 264 268 268 267 266 263 261 257 252 247 246 246 246
329 331 333 332 333 335 334 333 332 332 331 325 315 309 307 301 298 295 299 302 284 247 238 227 244 244 249 257 262 265 266 266 268 264 263 263 262 262 258 250 246 245 245
336 337 336 332 327 329 327 328 330 326 321 317 309 301 298 296 294 288 288 287 288 271 261 249 253 254 254 259 265 268 264 267 265 260 259 261 261 261 260 255 249 246 246
335 329 329 329 330 329 329 325 324 325 317 307 303 295 291 289 291 284 280 278 278 277 282 282 271 259 257 267 283 278 264 265 263 260 257 260 263 267 257 251 249 247 245
324 324 322 319 321 316 312 314 313 313 314 302 286 283 284 284 281 280 276 277 274 274 274 263 267 265 259 266 275 282 261 263 256 260 261 266 268 270 257 245 243 246 246
329 318 315 311 312 311 308 305 309 307 303 290 285 283 281 283 284 277 272 270 271 271 270 268 258 260 260 260 258 266 263 264 258 257 263 269 272 280 285 252 246 247 249
326 315 308 309 307 305 305 303 302 300 296 289 285 284 284 281 280 277 268 263 265 265 264 263 266 261 255 257 254 255 256 260 261 259 260 263 268 275 279 278 277 248 246
321 321 304 308 305 305 305 303 300 300 296 287 283 283 283 283 281 280 278 265 260 264 265 263 261 263 260 255 252 248 252 251 255 261 265 265 263 268 271 274 290 293 270
320 319 310 305 305 302 300 301 303 304 297 287 286 287 284 283 282 282 281 269 262 258 265 262 260 259 261 259 255 248 251 248 246 259 263 264 262 261 264 266 263 270 284
323 319 315 308 303 302 302 302 303 304 297 288 286 288 286 280 278 278 281 268 261 261 262 263 259 258 258 258 254 251 247 244 245 245 248 252 262 259 259 259 261 261 261
318 318 310 307 304 303 303 304 304 305 299 292 288 288 284 279 274 275 272 266 268 262 260 259 261 258 256 256 253 247 246 243 244 246 247 248 250 254 256 262 267 262 260
311 308 306 306 306 303 301 302 303 303 298 291 288 286 282 276 272 274 267 273 265 256 262 262 262 257 254 252 249 247 244 244 247 251 252 252 255 255 256 255 259 261 263
307 307 306 303 301 301 299 299 300 300 296 290 287 285 279 274 270 266 265 271 262 262 267 259 263 255 253 252 251 251 252 252 253 250 252 257 257 256 257 259 260 262 263
307 303 305 303 300 299 298 298 297 296 295 290 285 281 276 273 267 265 264 271 255 260 264 259 259 258 254 253 252 254 256 256 257 257 255 254 254 258 260 261 262 261 261